Moab, UT

6:35 AM MDT on March 28, 2017 (GMT -0600)
Canyonlands

Weather History for KCNY - March, 2013

Change the Weather History Date:

Tuesday, March 19, 2013

  Actual Average Record
Temperature  
Mean Temperature 47 °F 45 °F  
Max Temperature 59 °F 60 °F 80 °F (2017)
Min Temperature 34 °F 31 °F 20 °F (1951)
Degree Days  
Heating Degree Days 18 20  
Month to date heating degree days 353 422  
Since 1 July heating degree days 5283 4831  
Cooling Degree Days 0 0  
Month to date cooling degree days 0 0  
Year to date cooling degree days 0 0  
Moisture  
Dew Point 1 °F    
Average Humidity 20    
Maximum Humidity 35    
Minimum Humidity 4    
Precipitation  
Precipitation 0.00 in 0.02 in 0.42 in (1983)
Month to date precipitation 0.06 0.47  
Year to date precipitation 0.69 1.63  
Sea Level Pressure  
Sea Level Pressure 30.08 in    
Wind  
Wind Speed 3 mph (WNW)    
Max Wind Speed 13 mph    
Max Gust Speed 22 mph    
Visibility 10 miles    
Events      
T = Trace of Precipitation, MM = Missing Value Source: NWS Daily Summary

Daily Weather History Graph

Daily Weather History Graph

Search for Another Location

Airport or City:

Trip Planner

Search our weather history database for the weather conditions in past years. The results will help you decide how hot, cold, wet, or windy it might be!

Date:

Astronomy

Mar. 19, 2013 Rise Set
Actual Time 7:23 AM MDT 7:30 PM MDT
Civil Twilight 6:57 AM MDT 7:56 PM MDT
Nautical Twilight 6:26 AM MDT 8:27 PM MDT
Astronomical Twilight 5:54 AM MDT 8:59 PM MDT
Moon 12:20 PM MDT (3/19) 2:16 AM MDT (3/19)
Length of Visible Light 12h 59m
Length of Day
12h 06m
Waxing Crescent, 50% of the Moon is Illuminated
Mar 19
Waxing Crescent
Mar 27
Full
Apr 2
Last Quarter
Apr 10
New
Apr 18
First Quarter

Hourly Weather History & Observations

Time (MDT) Temp. Windchill Dew Point Humidity Pressure Visibility Wind Dir Wind Speed Gust Speed Precip Events Conditions
12:53 AM 36.0 °F - 7.0 °F 30% 29.97 in 10.0 mi Calm Calm - N/A   Clear
1:53 AM 37.0 °F - 7.0 °F 29% 29.96 in 10.0 mi Calm Calm - N/A   Clear
2:53 AM 37.9 °F - 8.1 °F 29% 29.98 in 10.0 mi Calm Calm - N/A   Clear
3:53 AM 37.9 °F - 8.1 °F 29% 29.98 in 10.0 mi Calm Calm - N/A   Clear
4:53 AM 39.0 °F 36.8 °F 9.0 °F 29% 29.98 in 10.0 mi NNW 3.5 mph - N/A   Clear
5:53 AM 39.0 °F - 12.0 °F 33% 30.00 in 10.0 mi Calm Calm - N/A   Clear
6:53 AM 39.9 °F 37.8 °F 12.0 °F 32% 30.02 in 10.0 mi NW 3.5 mph - N/A   Clear
7:53 AM 37.9 °F - 12.9 °F 36% 30.07 in 10.0 mi Calm Calm - N/A   Scattered Clouds
8:53 AM 42.1 °F 37.1 °F 15.1 °F 34% 30.10 in 10.0 mi NW 8.1 mph - N/A   Overcast
9:53 AM 46.0 °F 40.6 °F 14.0 °F 28% 30.12 in 10.0 mi NNW 11.5 mph - N/A   Clear
10:53 AM 48.0 °F - 12.9 °F 24% 30.14 in 10.0 mi NNW 6.9 mph - N/A   Partly Cloudy
11:53 AM 51.1 °F - 10.9 °F 20% 30.14 in 10.0 mi Calm Calm - N/A   Clear
12:53 PM 53.1 °F - 8.1 °F 16% 30.14 in 10.0 mi Calm Calm - N/A   Clear
1:53 PM 55.0 °F - 3.9 °F 13% 30.13 in 10.0 mi Variable 5.8 mph - N/A   Clear
2:53 PM 57.0 °F - -0.0 °F 10% 30.10 in 10.0 mi West 8.1 mph - N/A   Clear
3:53 PM 57.9 °F - -4.0 °F 8% 30.09 in 10.0 mi NW 9.2 mph - N/A   Clear
4:53 PM 57.9 °F - -16.1 °F 4% 30.08 in 10.0 mi Variable 6.9 mph - N/A   Clear
5:53 PM 57.0 °F - -20.9 °F 4% 30.09 in 10.0 mi Calm Calm - N/A   Clear
6:53 PM 55.9 °F - -17.0 °F 5% 30.09 in 10.0 mi Calm Calm - N/A   Clear
7:53 PM 51.1 °F - -17.0 °F 6% 30.11 in 10.0 mi Calm Calm - N/A   Clear
8:53 PM 45.0 °F - -11.0 °F 9% 30.12 in 10.0 mi Calm Calm - N/A   Clear
9:53 PM 39.0 °F 35.7 °F -9.0 °F 13% 30.15 in 10.0 mi WSW 4.6 mph - N/A   Clear
10:53 PM 37.0 °F 34.5 °F -8.0 °F 14% 30.15 in 10.0 mi WSW 3.5 mph - N/A   Clear
11:53 PM 36.0 °F - -8.0 °F 15% 30.15 in 10.0 mi Calm Calm - N/A   Clear